Location: Newark
(45.8667°N, 9.7333°E)
Time: 21:03:07
(UTC+00:00)

AO-73 - Pass Details

Date: 28 February 2020
Orbit: 581 x 664 km, 97.6° (Epoch: 09 April)

Event Time Altitude Azimuth Distance (km) Brightness Sun altitude
Rises 04:50:52 0° 22° (NNE) 3,007 ? -13.3°
Reaches altitude 10° 04:53:21 10° 33° (NNE) 2,084 ? -12.9°
Maximum altitude 04:57:23 30° 95° (E) 1,160 ? -12.2°
Drops below altitude 10° 05:01:19 10° 157° (SSE) 2,036 ? -11.5°
Sets 05:03:42 0° 168° (SSE) 2,927 ? -11.1°
